{"data":{"norad_id":59236,"intl_designator":"2024-049F","name":"STARLINK-31444","alt_names":[],"object_type":"PAYLOAD","status":"ACTIVE","operator":null,"country":"US","launch_date":"2024-03-16","launch_site_code":"AFETR","launch_vehicle":null,"mission":null,"orbit_class":"UNKNOWN","rcs_meters":null,"size_class":null,"mass_kg":null,"dimensions":null,"purposes":["comms"],"wikipedia_slug":null,"has_3d_model":false,"image_url":null,"decayed_at":null,"tle_current":{"epoch":"2026-09-20T22:00:03.000096Z","epoch_age_seconds":122821,"freshness":"FRESH","line1":"1 59236U 24049F   26263.91670139  .00161858  00000+0  24981-2 0  9993","line2":"2 59236  42.9927  34.0779 0020015 335.7660 356.2345 15.52616975  5918","mean_motion":15.52616975,"eccentricity":0.0020015,"inclination_deg":42.9927,"raan_deg":34.0779,"arg_perigee_deg":335.766,"mean_anomaly_deg":356.2345,"bstar":0.0024981,"rev_number":591,"period_min":92.746635080426,"perigee_km":395.50401538671,"apogee_km":422.67327965373,"semimajor_km":6787.2256475202,"source":"CELESTRAK","updated_at":"2026-09-21T09:00:34.075029Z"}}}